Location: Shenandoah County Park
(38.9356°N, 78.4524°W)
Time: 19:45:06
(UTC-05:00)

Altair - All Passes

Search period start: 03 December 2023 00:00
Search period end: 13 December 2023 00:00
Orbit: 1501 x 1682 km, 47.2° (Epoch: 03 December)

Date Brightness Start Highest point End Pass type
(mag) Time Alt. Az. Time Alt. Az. Time Alt. Az.
03 Dec - 06:47:28 10° S 06:55:30 29° SE 07:03:17 10° ENE visible
03 Dec - 08:49:40 10° SW 08:59:26 85° SSE 09:08:51 10° ENE daylight
03 Dec - 10:55:30 10° W 11:04:48 54° N 11:13:50 10° ENE daylight
03 Dec - 13:01:36 10° WNW 13:10:49 58° NNE 13:19:50 10° E daylight
03 Dec - 15:06:39 10° WNW 15:15:50 71° SW 15:24:55 10° SE daylight
03 Dec - 17:13:06 10° W 17:19:15 20° SW 17:25:26 10° S visible
04 Dec - 06:22:42 10° S 06:30:24 27° SE 06:37:53 10° ENE visible
04 Dec - 08:24:27 10° SW 08:34:13 81° SE 08:43:39 10° ENE daylight
04 Dec - 10:30:08 10° W 10:39:31 56° NNW 10:48:36 10° ENE daylight
04 Dec - 12:36:20 10° WNW 12:45:33 57° NNE 12:54:33 10° E daylight
04 Dec - 14:41:25 10° WNW 14:50:40 76° SW 14:59:48 10° SE daylight
04 Dec - 16:47:34 10° W 16:54:12 23° SW 17:00:50 10° S daylight
05 Dec - 05:57:58 10° S 06:05:18 24° SE 06:12:27 10° E visible
05 Dec - 07:59:14 10° SW 08:09:01 76° SE 08:18:27 10° ENE daylight
05 Dec - 10:04:46 10° W 10:14:14 57° NNW 10:23:22 10° ENE daylight
05 Dec - 12:11:02 10° WNW 12:20:16 55° NNE 12:29:15 10° E daylight
05 Dec - 14:16:12 10° WNW 14:25:29 81° SW 14:34:39 10° SE daylight
05 Dec - 16:22:06 10° WNW 16:29:08 25° SW 16:36:10 10° S daylight
06 Dec - 05:33:17 10° S 05:40:12 22° SE 05:46:56 10° E visible
06 Dec - 07:34:03 10° SW 07:43:50 71° SE 07:53:14 10° ENE daylight
06 Dec - 09:39:25 10° W 09:48:56 59° NNW 09:58:08 10° ENE daylight
06 Dec - 11:45:44 10° WNW 11:54:59 54° N 12:03:57 10° E daylight
06 Dec - 13:50:59 10° WNW 14:00:19 86° SSW 14:09:29 10° SE daylight
06 Dec - 15:56:40 10° WNW 16:04:03 28° SW 16:11:27 10° S daylight
07 Dec - 05:08:42 10° SSE 05:15:06 19° SE 05:21:22 10° E visible
07 Dec - 07:08:54 10° SW 07:18:38 67° SE 07:28:02 10° ENE daylight
07 Dec - 09:14:03 10° W 09:23:39 61° NNW 09:32:55 10° ENE daylight
07 Dec - 11:20:26 10° WNW 11:29:41 53° N 11:38:39 10° E daylight
07 Dec - 13:25:45 10° WNW 13:35:07 90° NNE 13:44:19 10° ESE daylight
07 Dec - 15:31:17 10° WNW 15:38:59 31° SW 15:46:39 10° S daylight
08 Dec - 04:44:13 10° SSE 04:50:01 17° SE 04:55:42 10° E visible
08 Dec - 06:43:45 10° SW 06:53:28 62° SE 07:02:49 10° ENE visible
08 Dec - 08:48:43 10° W 08:58:22 63° NNW 09:07:42 10° ENE daylight
08 Dec - 10:55:06 10° WNW 11:04:23 53° N 11:13:22 10° E daylight
08 Dec - 13:00:31 10° WNW 13:09:55 85° NNE 13:19:07 10° ESE daylight
08 Dec - 15:05:55 10° WNW 15:13:54 34° SW 15:21:50 10° SSE daylight
09 Dec - 04:19:54 10° SSE 04:24:56 15° ESE 04:29:54 10° E visible
09 Dec - 06:18:39 10° SW 06:28:17 58° SE 06:37:35 10° ENE visible
09 Dec - 08:23:22 10° WSW 08:33:06 66° NNW 08:42:29 10° ENE daylight
09 Dec - 10:29:47 10° WNW 10:39:05 52° N 10:48:05 10° E daylight
09 Dec - 12:35:16 10° WNW 12:44:43 81° NNE 12:53:54 10° ESE daylight
09 Dec - 14:40:35 10° WNW 14:48:48 38° SW 14:56:58 10° SSE daylight
10 Dec - 03:55:47 10° SSE 03:59:52 13° ESE 04:03:53 10° E visible
10 Dec - 05:53:34 10° SSW 06:03:07 54° SE 06:12:21 10° ENE visible
10 Dec - 07:58:01 10° WSW 08:07:49 69° NNW 08:17:16 10° ENE daylight
10 Dec - 10:04:26 10° WNW 10:13:46 52° N 10:22:47 10° ENE daylight
10 Dec - 12:10:02 10° WNW 12:19:30 77° NNE 12:28:42 10° ESE daylight
10 Dec - 14:15:16 10° WNW 14:23:43 41° SW 14:32:03 10° SSE daylight
11 Dec - 03:32:08 10° SE 03:34:47 11° ESE 03:37:25 10° ESE visible
11 Dec - 05:28:30 10° SSW 05:37:57 50° SE 05:47:06 10° ENE visible
11 Dec - 07:32:41 10° WSW 07:42:34 72° NNW 07:52:03 10° ENE daylight
11 Dec - 09:39:05 10° WNW 09:48:27 52° N 09:57:30 10° ENE daylight
11 Dec - 11:44:47 10° WNW 11:54:16 74° NNE 12:03:28 10° ESE daylight
11 Dec - 13:49:57 10° WNW 13:58:36 45° SW 14:07:07 10° SSE daylight
12 Dec - 05:03:28 10° SSW 05:12:48 46° SE 05:21:50 10° ENE visible
12 Dec - 07:07:22 10° WSW 07:17:18 75° NNW 07:26:51 10° ENE daylight
12 Dec - 09:13:43 10° WNW 09:23:09 52° N 09:32:13 10° ENE daylight
12 Dec - 11:19:32 10° WNW 11:29:01 70° NNE 11:38:13 10° ESE daylight
12 Dec - 13:24:40 10° WNW 13:33:29 49° SW 13:42:09 10° SSE daylight
12 Dec - 15:35:46 10° WSW 15:36:24 10° WSW 15:37:02 10° SW daylight
